STARLINK-32860, 62856

Orbit data source: Space-Track

STARLINK-32860, 62856 is a payload satellite owned by SpaceX/Seattle (US) in LEO that was launched on Sat, 01 Feb 2025 UTC via an FALCON 9 launch vehicle from the Air Force Western Test Range (AFWTR). Payload-class satellites include a variety of spacecraft equipped with specific instruments for various scientific and technological missions. These include communications satellites like Starlink; space stations such as the ISS; scientific satellites like the Hubble; Earth observation satellites from companies like Planet Labs, Umbra, and HawkEye 360; GPS; miniature CubeSats for education and research; and military/defense satellites.

Loading next visibility...
Identifier
62856, 2025-022C
Orbit
LEO
Country
Flag of USUS
Related business
Manufacturer
SpaceX/Seattle
Mission
Operational Commercial Communications
Bus & Motor
STARLINK V2M, Unknown motor
Mass
730 kg wet, ~700 kg dry
Launch date (UTC)
2025-02-01 (1 year ago)
Launch vehicle
FALCON 9
Launch site
Air Force Western Test Range (AFWTR)
Object type
Payload
Rocket body
Debris
Shape & HBR
Box + 2 Pan, 17.7 m
Radar Cross Section
33.884 m², Large (>1 m²)

Expand to show TLE details & history
Last TLE update: 18 hours ago

TLE from 18 hours ago
0 STARLINK-32860
1 62856U 25022C   26036.40704259  .00032526  00000-0  11049-2 0  9991
2 62856  53.1574 279.8358 0001365  95.8228 264.2928 15.30218155 56954
Epoch: 2026-02-05T09:46Z
TLE epoch observation values (Epoch: 2026-02-05T09:46:08.479Z)
Latitude
-0.00007°
Longitude
-2.2593°
Altitude
476.153 km
Speed
7.629 km/s
True Right ascension
18h 39m 20s
True Declination
0° 00' 00"
Sunlit
Object was in daylight at epoch
Visualization orbit readout
Latitude
Unknown
Longitude
Unknown
Altitude
Unknown
Speed
Unknown
Apparent Right ascension
Unknown
Apparent Declination
Unknown
Sunlit
N/A
Visualization observer readout
Local Sidereal Time
06:08:38
Azimuth
Unknown
Elevation
Unknown
Doppler factor
Unknown
Orbital elements
Apogee altitude
476.353 km
Perigee altitude
474.482 km
Semi-major axis
6,853.555 km
Eccentricity
0.00014
Inclination
53.1574°
RAAN
279.8358°
Arg. of periapsis
95.8228°
True anomaly
264.27724°
Mean anomaly
264.2928°
Eccentric anomaly
264.28502°
Mean motion
3.82533 °/min
Orbital period
94.11 mins
BSTAR
0.0011049
Loading maneuver chart data...
Computing Atmospheric mass density...
Loading historical data...
Loading historical data...
Loading historical data...
Loading historical data...
Loading historical data...
Loading historical data...
Loading historical data...

Documentation

Showing up to 5 results
|